Location: Gleizolles
(44.4833°N, 6.7667°E)
Time: 05:06:48
(UTC+00:00)

Transit 4A - Pass Details

Date: 02 July 2024
Orbit: 870 x 973 km, 66.8° (Epoch: 14 July)

Event Time Altitude Azimuth Distance (km) Brightness Sun altitude
Rises 03:11:11 0° 332° (NNW) 3,496 11.1 -6.7°
Reaches altitude 10° 03:13:56 10° 342° (NNW) 2,566 10.5 -6.3°
Maximum altitude 03:19:14 33° 45° (NE) 1,493 10.0 -5.6°
Drops below altitude 10° 03:24:39 10° 108° (ESE) 2,616 10.7 -4.9°
Sets 03:27:28 0° 118° (ESE) 3,574 11.3 -4.5°
